STARLINK-34296, 64216

Orbit data source: Space-Track

STARLINK-34296, 64216 is a payload satellite owned by SpaceX/Seattle (US) in LEO that was launched on Sat, 31 May 2025 UTC via an FALCON 9 launch vehicle from the Air Force Western Test Range (AFWTR). Payload-class satellites include a variety of spacecraft equipped with specific instruments for various scientific and technological missions. These include communications satellites like Starlink; space stations such as the ISS; scientific satellites like the Hubble; Earth observation satellites from companies like Planet Labs, Umbra, and HawkEye 360; GPS; miniature CubeSats for education and research; and military/defense satellites.

Loading next visibility...
Identifier
64216, 2025-117P
Orbit
LEO
Country
Flag of USUS
Related business
Manufacturer
SpaceX/Seattle
Mission
Operational Commercial Communications
Bus & Motor
STARLINK V2MO, Unknown motor
Mass
575 kg wet, ~530 kg dry
Launch date (UTC)
2025-05-31 (1 year ago)
Launch vehicle
FALCON 9
Launch site
Air Force Western Test Range (AFWTR)
Object type
Payload
Rocket body
Debris
Shape & HBR
Box + 1 Pan, 17.7 m
Radar Cross Section
41.120 m², Large (>1 m²)

Expand to show TLE details & history
Last TLE update: 18 hours ago

TLE from 18 hours ago
0 STARLINK-34296
1 64216U 25117P   26235.59578599  .00019215  00000-0  59365-3 0  9999
2 64216  53.1593 344.0631 0001552  85.7954 274.3225 15.33571267 70113
Epoch: 2026-08-23T14:17Z
TLE epoch observation values (Epoch: 2026-08-23T14:17:55.909Z)
Latitude
-0.00007°
Longitude
157.69052°
Altitude
465.989 km
Speed
7.635 km/s
True Right ascension
22h 56m 15s
True Declination
0° 00' 00"
Sunlit
Object was in full shadow at epoch
Visualization orbit readout
Latitude
Unknown
Longitude
Unknown
Altitude
Unknown
Speed
Unknown
Apparent Right ascension
Unknown
Apparent Declination
Unknown
Sunlit
N/A
Visualization observer readout
Local Sidereal Time
23:04:02
Azimuth
Unknown
Elevation
Unknown
Doppler factor
Unknown
Orbital elements
Apogee altitude
466.487 km
Perigee altitude
464.362 km
Semi-major axis
6,843.561 km
Eccentricity
0.00016
Inclination
53.1593°
RAAN
344.0631°
Arg. of periapsis
85.7954°
True anomaly
274.30477°
Mean anomaly
274.3225°
Eccentric anomaly
274.31363°
Mean motion
3.83372 °/min
Orbital period
93.9 mins
BSTAR
0.00059365
Loading maneuver chart data...
Computing Atmospheric mass density...
Loading historical data...
Loading historical data...
Loading historical data...
Loading historical data...
Loading historical data...
Loading historical data...
Loading historical data...

Documentation

Showing up to 5 results
|